GW5833 Weather Reports


Display with metric or nautical units.
time (UTC)temp
F
wind
direction
speed
MPH
gust
MPH
rain 1hr
in
rain 24hr
in
rain mn
in
humidity
%
barometer
mb
20260906233058 93 105 3.0 6.0 0.00 0.00 0.00 20 1019.2
20260906232553 93 112 1.0 6.0 0.00 0.00 0.00 20 1019.5
20260906232048 93 95 2.0 6.0 0.00 0.00 0.00 20 1019.5
20260906231547 93 125 5.0 7.0 0.00 0.00 0.00 20 1019.7
20260906231043 92 180 0.0 5.0 0.00 0.00 0.00 20 1019.3
20260906230542 93 81 6.0 6.0 0.00 0.00 0.00 20 1019.5
20260906230037 93 23 3.0 3.0 0.00 0.00 0.00 19 1019.5
20260906225536 93 182 2.0 7.0 0.00 0.00 0.00 20 1019.4
20260906225032 93 26 6.0 9.0 0.00 0.00 0.00 19 1019.5
20260906224528 93 110 3.0 10.0 0.00 0.00 0.00 20 1019.4
20260906224025 93 159 2.0 4.0 0.00 0.00 0.00 20 1019.4
20260906223520 93 137 4.0 10.0 0.00 0.00 0.00 19 1019.5
20260906223020 92 161 2.0 8.0 0.00 0.00 0.00 20 1019.5
20260906222514 92 119 0.0 7.0 0.00 0.00 0.00 20 1019.3
20260906222011 93 70 4.0 8.0 0.00 0.00 0.00 19 1019.5
20260906221510 93 108 6.0 11.0 0.00 0.00 0.00 19 1019.7
20260906221006 93 50 0.0 6.0 0.00 0.00 0.00 19 1019.5
20260906220500 94 149 2.0 7.0 0.00 0.00 0.00 19 1020.0
20260906220000 93 26 0.0 5.0 0.00 0.00 0.00 19 1019.9
20260906215500 93 92 3.0 7.0 0.00 0.00 0.00 19 1019.8
20260906214957 93 96 4.0 10.0 0.00 0.00 0.00 19 1019.9
20260906214457 94 132 5.0 11.0 0.00 0.00 0.00 18 1019.9
20260906213956 93 222 2.0 3.0 0.00 0.00 0.00 19 1020.3
20260906213451 93 355 2.0 4.0 0.00 0.00 0.00 19 1020.4
20260906212949 93 43 3.0 5.0 0.00 0.00 0.00 18 1020.6
20260906212444 94 205 6.0 9.0 0.00 0.00 0.00 18 1020.6
20260906211939 93 300 3.0 8.0 0.00 0.00 0.00 18 1020.6
20260906211434 95 234 3.0 6.0 0.00 0.00 0.00 18 1020.6
20260906210929 93 11 2.0 4.0 0.00 0.00 0.00 18 1020.6
20260906210425 92 233 2.0 6.0 0.00 0.00 0.00 19 1020.9
20260906205918 93 99 3.0 6.0 0.00 0.00 0.00 18 1020.9
20260906205414 92 26 4.0 6.0 0.00 0.00 0.00 18 1020.9
20260906204910 92 121 5.0 6.0 0.00 0.00 0.00 19 1021.0
20260906204409 92 92 3.0 4.0 0.00 0.00 0.00 18 1021.0
20260906203909 91 250 4.0 5.0 0.00 0.00 0.00 19 1021.1
20260906203405 92 77 4.0 4.0 0.00 0.00 0.00 18 1021.5
20260906202902 93 206 5.0 5.0 0.00 0.00 0.00 18 1021.2
20260906202401 92 121 2.0 7.0 0.00 0.00 0.00 19 1021.5
20260906201901 92 210 2.0 5.0 0.00 0.00 0.00 19 1021.3
20260906201355 92 200 2.0 4.0 0.00 0.00 0.00 19 1021.6
20260906200851 92 105 3.0 6.0 0.00 0.00 0.00 19 1021.7
20260906200347 91 279 1.0 4.0 0.00 0.00 0.00 19 1021.8
20260906195841 92 159 3.0 7.0 0.00 0.00 0.00 18 1021.9
20260906195338 93 208 3.0 4.0 0.00 0.00 0.00 19 1021.6
20260906194834 92 120 1.0 4.0 0.00 0.00 0.00 19 1021.8
20260906194329 93 137 3.0 3.0 0.00 0.00 0.00 20 1021.3
20260906193824 92 234 2.0 9.0 0.00 0.00 0.00 20 1021.8
20260906193319 92 157 2.0 8.0 0.00 0.00 0.00 20 1021.8
20260906192816 90 103 0.0 3.0 0.00 0.00 0.00 22 1021.9
20260906192315 91 42 3.0 3.0 0.00 0.00 0.00 21 1022.3
20260906191814 91 138 3.0 5.0 0.00 0.00 0.00 20 1022.2
20260906191309 90 112 0.0 4.0 0.00 0.00 0.00 21 1022.3
20260906190803 91 172 2.0 7.0 0.00 0.00 0.00 21 1022.3
20260906190257 91 157 2.0 3.0 0.00 0.00 0.00 22 1022.2
20260906185756 91 203 3.0 6.0 0.00 0.00 0.00 22 1022.5
20260906185256 91 237 2.0 3.0 0.00 0.00 0.00 22 1022.8
20260906184751 90 117 2.0 3.0 0.00 0.00 0.00 22 1022.8
20260906184246 89 260 2.0 3.0 0.00 0.00 0.00 23 1022.6
20260906183742 88 113 2.0 4.0 0.00 0.00 0.00 24 1022.8
20260906183238 88 253 2.0 3.0 0.00 0.00 0.00 24 1022.5
20260906182737 86 220 2.0 3.0 0.00 0.00 0.00 25 1022.9
20260906182233 86 113 3.0 5.0 0.00 0.00 0.00 25 1023.2
20260906181728 88 123 4.0 6.0 0.00 0.00 0.00 25 1023.2
20260906181225 87 126 4.0 6.0 0.00 0.00 0.00 24 1023.2
20260906180725 86 241 1.0 4.0 0.00 0.00 0.00 25 1023.6
20260906180220 87 163 0.0 6.0 0.00 0.00 0.00 25 1023.5
20260906175718 86 150 2.0 5.0 0.00 0.00 0.00 25 1023.4
20260906175214 88 40 7.0 7.0 0.00 0.00 0.00 24 1023.7
20260906174712 87 108 0.0 5.0 0.00 0.00 0.00 25 1023.7
20260906174206 87 164 0.0 3.0 0.00 0.00 0.00 25 1023.6
20260906173702 86 82 2.0 4.0 0.00 0.00 0.00 26 1023.6
20260906173157 87 86 3.0 5.0 0.00 0.00 0.00 26 1023.6
20260906172656 86 296 0.0 2.0 0.00 0.00 0.00 26 1023.7
20260906172152 85 157 1.0 4.0 0.00 0.00 0.00 27 1023.7
20260906171652 85 113 3.0 3.0 0.00 0.00 0.00 27 1023.8
20260906171147 85 66 2.0 5.0 0.00 0.00 0.00 27 1023.7
20260906170643 86 81 2.0 2.0 0.00 0.00 0.00 27 1024.0
20260906170143 87 111 0.0 4.0 0.00 0.00 0.00 27 1023.8
20260906165639 88 80 2.0 2.0 0.00 0.00 0.00 26 1023.8
20260906165134 86 259 2.0 3.0 0.00 0.00 0.00 26 1024.0
20260906164633 85 280 1.0 4.0 0.00 0.00 0.00 27 1023.7
20260906164129 84 105 4.0 5.0 0.00 0.00 0.00 28 1024.0
20260906163625 85 133 3.0 4.0 0.00 0.00 0.00 29 1024.0
20260906163120 84 129 2.0 5.0 0.00 0.00 0.00 29 1024.1
20260906162617 84 147 3.0 4.0 0.00 0.00 0.00 30 1024.0
20260906162112 82 195 2.0 4.0 0.00 0.00 0.00 31 1023.7
20260906161612 82 142 2.0 3.0 0.00 0.00 0.00 31 1024.1
20260906161111 80 216 1.0 2.0 0.00 0.00 0.00 33 1023.7
20260906160610 79 150 1.0 3.0 0.00 0.00 0.00 34 1023.8
20260906160109 79 91 3.0 3.0 0.00 0.00 0.00 34 1024.3
20260906155607 80 76 1.0 4.0 0.00 0.00 0.00 33 1024.0
20260906155103 80 293 0.0 4.0 0.00 0.00 0.00 33 1024.1
20260906154558 79 327 0.0 2.0 0.00 0.00 0.00 34 1023.8
20260906154057 79 124 1.0 2.0 0.00 0.00 0.00 32 1024.0
20260906153556 79 161 0.0 1.0 0.00 0.00 0.00 33 1024.0
20260906153051 79 208 0.0 2.0 0.00 0.00 0.00 34 1023.8
20260906152551 79 223 0.0 0.0 0.00 0.00 0.00 34 1024.0
20260906152050 78 125 1.0 2.0 0.00 0.00 0.00 34 1024.1
20260906151546 79 136 0.0 3.0 0.00 0.00 0.00 34 1024.2
20260906151041 78 292 1.0 2.0 0.00 0.00 0.00 35 1024.0
20260906150537 77 147 2.0 4.0 0.00 0.00 0.00 36 1024.0
20260906150032 77 141 2.0 4.0 0.00 0.00 0.00 36 1023.8
20260906145531 77 138 2.0 4.0 0.00 0.00 0.00 35 1024.0
20260906145026 78 121 4.0 4.0 0.00 0.00 0.00 35 1024.0
20260906144520 77 202 0.0 2.0 0.00 0.00 0.00 36 1023.8
20260906144015 77 147 2.0 5.0 0.00 0.00 0.00 35 1023.6
20260906143510 77 96 2.0 3.0 0.00 0.00 0.00 35 1023.7
20260906143008 75 62 1.0 2.0 0.00 0.00 0.00 37 1023.7
20260906142506 73 71 1.0 2.0 0.00 0.00 0.00 37 1023.6
20260906142002 72 62 0.0 1.0 0.00 0.00 0.00 38 1023.6
20260906141455 72 36 2.0 3.0 0.00 0.00 0.00 38 1023.8
20260906140951 71 338 2.0 3.0 0.00 0.00 0.00 38 1023.4
20260906140445 70 50 0.0 1.0 0.00 0.00 0.00 42 1023.7
20260906135943 70 44 1.0 2.0 0.00 0.00 0.00 42 1023.6
20260906135442 70 319 0.0 1.0 0.00 0.00 0.00 40 1023.6
20260906134938 70 89 0.0 0.0 0.00 0.00 0.00 43 1023.5
20260906134433 70 116 1.0 2.0 0.00 0.00 0.00 41 1023.5
20260906133933 70 258 2.0 3.0 0.00 0.00 0.00 41 1023.2
20260906133429 70 180 0.0 1.0 0.00 0.00 0.00 42 1023.5
20260906132924 70 204 1.0 2.0 0.00 0.00 0.00 41 1023.1
20260906132419 69 303 1.0 2.0 0.00 0.00 0.00 41 1022.9
20260906131915 69 4 0.0 2.0 0.00 0.00 0.00 42 1023.4
20260906131410 69 124 2.0 2.0 0.00 0.00 0.00 40 1023.5
20260906130906 69 269 0.0 2.0 0.00 0.00 0.00 40 1023.2
20260906130405 69 355 0.0 2.0 0.00 0.00 0.00 40 1023.1
20260906125904 69 36 2.0 3.0 0.00 0.00 0.00 40 1023.2
20260906125401 69 15 1.0 4.0 0.00 0.00 0.00 40 1022.9
20260906124856 69 14 1.0 2.0 0.00 0.00 0.00 39 1022.9
20260906124352 69 66 0.0 1.0 0.00 0.00 0.00 39 1023.0
20260906123851 70 25 0.0 1.0 0.00 0.00 0.00 39 1023.2
20260906123347 70 192 0.0 2.0 0.00 0.00 0.00 38 1022.9
20260906122846 70 349 1.0 3.0 0.00 0.00 0.00 38 1022.8
20260906122341 69 126 0.0 1.0 0.00 0.00 0.00 39 1022.9
20260906121838 69 281 0.0 1.0 0.00 0.00 0.00 40 1022.9
20260906121333 69 131 0.0 1.0 0.00 0.00 0.00 39 1023.0
20260906120830 70 236 0.0 1.0 0.00 0.00 0.00 39 1022.6
20260906120325 70 274 1.0 2.0 0.00 0.00 0.00 40 1022.6
20260906115821 70 304 0.0 1.0 0.00 0.00 0.00 40 1022.8
20260906115316 70 217 0.0 1.0 0.00 0.00 0.00 40 1022.8
20260906114816 70 306 0.0 1.0 0.00 0.00 0.00 40 1022.6
20260906114312 71 195 1.0 2.0 0.00 0.00 0.00 40 1022.6
20260906113812 71 346 0.0 2.0 0.00 0.00 0.00 39 1022.9
20260906113311 70 216 0.0 2.0 0.00 0.00 0.00 39 1022.9
20260906112806 71 290 0.0 1.0 0.00 0.00 0.00 39 1023.0
20260906112306 71 124 0.0 1.0 0.00 0.00 0.00 39 1022.9
20260906111802 72 249 0.0 0.0 0.00 0.00 0.00 38 1022.8
20260906111301 72 271 2.0 2.0 0.00 0.00 0.00 38 1022.5
20260906110757 73 256 0.0 2.0 0.00 0.00 0.00 38 1022.5
20260906110252 73 294 1.0 1.0 0.00 0.00 0.00 37 1022.6
20260906105751 73 250 1.0 2.0 0.00 0.00 0.00 37 1022.6
20260906105242 73 273 2.0 3.0 0.00 0.00 0.00 37 1022.8
20260906104737 74 243 1.0 3.0 0.00 0.00 0.00 37 1022.9
20260906104236 73 256 2.0 4.0 0.00 0.00 0.00 37 1022.8
20260906103734 73 247 3.0 4.0 0.00 0.00 0.00 38 1023.0
20260906103233 73 102 0.0 4.0 0.00 0.00 0.00 39 1022.9
20260906102729 73 220 2.0 2.0 0.00 0.00 0.00 38 1022.4
20260906102228 74 124 0.0 2.0 0.00 0.00 0.00 38 1022.6
20260906101724 74 72 0.0 2.0 0.00 0.00 0.00 37 1022.9
20260906101218 73 319 2.0 2.0 0.00 0.00 0.00 38 1023.0
20260906100714 74 217 0.0 3.0 0.00 0.00 0.00 38 1023.0
20260906100214 74 56 2.0 2.0 0.00 0.00 0.00 38 1023.0
20260906095714 74 31 3.0 3.0 0.00 0.00 0.00 38 1023.0
20260906095210 73 34 4.0 4.0 0.00 0.00 0.00 38 1022.9
20260906094708 73 53 0.0 1.0 0.00 0.00 0.00 39 1022.5
20260906094204 72 53 0.0 1.0 0.00 0.00 0.00 39 1022.9
20260906093701 72 242 0.0 2.0 0.00 0.00 0.00 39 1022.5
20260906093156 72 147 0.0 0.0 0.00 0.00 0.00 40 1022.5
20260906092651 73 135 0.0 1.0 0.00 0.00 0.00 38 1022.3
20260906092150 73 229 0.0 1.0 0.00 0.00 0.00 39 1022.6
20260906091647 73 212 0.0 1.0 0.00 0.00 0.00 39 1022.5
20260906091143 73 217 0.0 0.0 0.00 0.00 0.00 39 1022.4
20260906090638 73 150 0.0 0.0 0.00 0.00 0.00 38 1022.3
20260906090132 73 76 0.0 0.0 0.00 0.00 0.00 38 1022.3
20260906085631 73 76 0.0 0.0 0.00 0.00 0.00 38 1022.3
20260906085125 73 57 0.0 1.0 0.00 0.00 0.00 38 1022.3
20260906084620 73 62 0.0 1.0 0.00 0.00 0.00 38 1022.3
20260906084119 72 29 0.0 0.0 0.00 0.00 0.00 38 1022.5
20260906083615 73 350 0.0 1.0 0.00 0.00 0.00 37 1022.3
20260906083115 73 124 0.0 1.0 0.00 0.00 0.00 37 1022.5
20260906082610 72 13 0.0 0.0 0.00 0.00 0.00 37 1022.6
20260906082106 71 76 0.0 1.0 0.00 0.00 0.00 39 1022.4
20260906081601 71 37 0.0 0.0 0.00 0.00 0.00 39 1022.3
20260906081056 71 209 0.0 0.0 0.00 0.00 0.00 38 1022.6
20260906080553 72 209 0.0 0.0 0.00 0.00 0.00 38 1022.6
20260906080049 72 224 0.0 0.0 0.00 0.00 0.00 38 1022.6
20260906075548 72 145 0.0 0.0 0.00 0.00 0.00 38 1022.6
20260906075044 72 50 0.0 0.0 0.00 0.00 0.00 37 1022.9
20260906074538 72 0 0.0 0.0 0.00 0.00 0.00 37 1022.6
20260906074037 72 326 0.0 2.0 0.00 0.00 0.00 37 1023.0
20260906073532 72 50 0.0 0.0 0.00 0.00 0.00 37 1022.9
20260906073028 72 141 0.0 0.0 0.00 0.00 0.00 36 1022.9
20260906072523 73 246 0.0 1.0 0.00 0.00 0.00 36 1023.0
20260906072019 74 212 0.0 0.0 0.00 0.00 0.00 35 1022.9
20260906071515 74 298 1.0 2.0 0.00 0.00 0.00 34 1022.8
20260906071010 75 277 0.0 2.0 0.00 0.00 0.00 34 1022.9
20260906070506 75 311 2.0 3.0 0.00 0.00 0.00 34 1022.9
20260906070002 76 312 1.0 1.0 0.00 0.00 0.00 34 1022.9
20260906065501 76 326 3.0 3.0 0.00 0.00 0.00 34 1022.8
20260906064956 76 305 3.0 4.0 0.00 0.00 0.00 34 1022.9
20260906064453 76 25 0.0 3.0 0.00 0.00 0.00 34 1023.1
20260906063947 77 286 2.0 3.0 0.00 0.00 0.00 33 1023.1
20260906063443 77 264 1.0 4.0 0.00 0.00 0.00 33 1023.0
20260906062943 77 316 3.0 4.0 0.00 0.00 0.00 33 1023.1
20260906062439 77 313 2.0 2.0 0.00 0.00 0.00 33 1023.0
20260906061934 77 323 5.0 6.0 0.00 0.00 0.00 33 1022.9
20260906061430 77 111 1.0 4.0 0.00 0.00 0.00 33 1023.1
20260906060929 77 27 0.0 6.0 0.00 0.00 0.00 32 1023.0
20260906060427 77 335 3.0 6.0 0.00 0.00 0.00 32 1022.6
20260906055923 77 58 0.0 3.0 0.00 0.00 0.00 32 1022.9
20260906055418 77 231 0.0 3.0 0.00 0.00 0.00 32 1022.8
20260906054914 77 6 2.0 4.0 0.00 0.00 0.00 32 1023.1
20260906054408 77 49 5.0 6.0 0.00 0.00 0.00 32 1022.9
20260906053904 78 72 2.0 4.0 0.00 0.00 0.00 30 1022.8
20260906053400 79 236 0.0 4.0 0.00 0.00 0.00 29 1022.5
20260906052856 79 262 2.0 5.0 0.00 0.00 0.00 29 1022.8
20260906052352 79 286 3.0 4.0 0.00 0.00 0.00 29 1022.4
20260906051849 79 249 5.0 6.0 0.00 0.00 0.00 29 1022.6
20260906051348 79 259 3.0 5.0 0.00 0.00 0.00 29 1022.6
20260906050845 80 239 4.0 8.0 0.00 0.00 0.00 28 1022.6
20260906050339 80 251 6.0 7.0 0.00 0.00 0.00 28 1022.5
20260906045838 80 259 5.0 6.0 0.00 0.00 0.00 28 1022.4
20260906045332 80 242 7.0 9.0 0.00 0.00 0.00 28 1022.8
20260906044828 80 251 6.0 8.0 0.00 0.00 0.00 28 1022.4
20260906044322 80 238 5.0 6.0 0.00 0.00 0.00 28 1022.2
20260906043818 80 266 4.0 7.0 0.00 0.00 0.00 28 1022.4
20260906043314 80 262 3.0 5.0 0.00 0.00 0.00 28 1022.6
20260906042809 81 260 3.0 9.0 0.00 0.00 0.00 28 1022.4
20260906042308 81 269 4.0 8.0 0.00 0.00 0.00 28 1022.3
20260906041804 80 251 6.0 9.0 0.00 0.00 0.00 28 1022.3
20260906041304 80 246 6.0 6.0 0.00 0.00 0.00 29 1022.4
20260906040759 80 269 3.0 6.0 0.00 0.00 0.00 29 1022.8
20260906040254 80 233 4.0 5.0 0.00 0.00 0.00 29 1022.8
20260906035749 80 267 4.0 7.0 0.00 0.00 0.00 29 1022.5
20260906035245 80 265 3.0 4.0 0.00 0.00 0.00 29 1022.4
20260906034740 81 256 4.0 7.0 0.00 0.00 0.00 29 1022.6
20260906034235 80 260 4.0 9.0 0.00 0.00 0.00 29 1022.5
20260906033731 80 257 4.0 7.0 0.00 0.00 0.00 29 1022.5
20260906033230 80 257 4.0 7.0 0.00 0.00 0.00 30 1022.4
20260906032727 80 248 5.0 5.0 0.00 0.00 0.00 30 1022.5
20260906032227 80 262 3.0 7.0 0.00 0.00 0.00 30 1022.1
20260906031722 80 256 4.0 6.0 0.00 0.00 0.00 30 1022.1
20260906031218 81 223 3.0 7.0 0.00 0.00 0.00 30 1021.9
20260906030717 81 236 4.0 9.0 0.00 0.00 0.00 30 1021.9
20260906030213 81 255 6.0 6.0 0.00 0.00 0.00 30 1022.2
20260906025712 81 256 5.0 6.0 0.00 0.00 0.00 30 1021.8
20260906025212 81 241 5.0 5.0 0.00 0.00 0.00 30 1021.8
20260906024711 81 253 3.0 4.0 0.00 0.00 0.00 30 1021.7
20260906024210 82 272 5.0 7.0 0.00 0.00 0.00 30 1021.5
20260906023707 82 247 5.0 7.0 0.00 0.00 0.00 30 1021.7
20260906023206 82 231 2.0 8.0 0.00 0.00 0.00 30 1021.8
20260906022702 82 259 3.0 5.0 0.00 0.00 0.00 30 1021.3
20260906022157 82 263 3.0 6.0 0.00 0.00 0.00 30 1021.7
20260906021653 82 261 3.0 4.0 0.00 0.00 0.00 30 1021.7
20260906021151 82 258 5.0 6.0 0.00 0.00 0.00 30 1021.1
20260906020646 82 254 3.0 5.0 0.00 0.00 0.00 31 1021.2
20260906020141 82 251 5.0 5.0 0.00 0.00 0.00 31 1021.3
20260906015635 81 253 2.0 4.0 0.00 0.00 0.00 32 1021.6
20260906015135 81 260 2.0 3.0 0.00 0.00 0.00 32 1021.1
20260906014634 82 255 0.0 1.0 0.00 0.00 0.00 32 1021.5
20260906014131 82 259 1.0 1.0 0.00 0.00 0.00 32 1021.2
20260906013626 82 262 1.0 1.0 0.00 0.00 0.00 31 1021.1
20260906013121 83 226 1.0 3.0 0.00 0.00 0.00 31 1021.2
20260906012616 84 207 1.0 2.0 0.00 0.00 0.00 30 1021.1
20260906012116 84 217 1.0 1.0 0.00 0.00 0.00 30 1021.3
20260906011613 85 191 1.0 2.0 0.00 0.00 0.00 29 1021.1
20260906011112 85 190 1.0 3.0 0.00 0.00 0.00 29 1021.3
20260906010608 86 164 0.0 1.0 0.00 0.00 0.00 28 1021.3
20260906010104 86 179 1.0 4.0 0.00 0.00 0.00 28 1021.3
20260906005603 87 136 3.0 9.0 0.00 0.00 0.00 27 1021.2
20260906005103 87 196 1.0 4.0 0.00 0.00 0.00 27 1021.3
20260906004602 87 210 2.0 3.0 0.00 0.00 0.00 27 1021.2
20260906004057 89 182 1.0 3.0 0.00 0.00 0.00 26 1021.3
20260906003552 89 15 0.0 2.0 0.00 0.00 0.00 26 1021.3
20260906003049 90 75 1.0 2.0 0.00 0.00 0.00 26 1021.1
20260906002548 89 168 2.0 3.0 0.00 0.00 0.00 26 1021.1
20260906002043 89 210 1.0 4.0 0.00 0.00 0.00 26 1021.1
20260906001539 90 200 2.0 6.0 0.00 0.00 0.00 26 1021.2
20260906001039 90 213 2.0 9.0 0.00 0.00 0.00 26 1021.1
20260906000535 90 101 1.0 3.0 0.00 0.00 0.00 26 1021.1
20260906000030 89 258 2.0 10.0 0.00 0.00 0.00 27 1021.0
20260905235529 89 95 2.0 4.0 0.00 0.00 0.00 25 1021.0
20260905235024 88 101 3.0 6.0 0.00 0.00 0.00 26 1021.0
20260905234520 88 18 3.0 3.0 0.00 0.00 0.00 27 1020.9
20260905234020 88 219 2.0 2.0 0.00 0.00 0.00 26 1021.1
20260905233515 88 214 4.0 6.0 0.00 0.00 0.00 26 1020.9